Vorticity
11 5 9 15 8 5 24 9 14 16 6 0 0 5 5 3 2 4 3 5 10 12 17 21 13 11 11 7 8 16 8 9 11 3 8 10 7 6 11 3 10 6 10 12 13 7 18 14 22 1 8 -3 15 13
12 6 7 14 8 9 20 10 7 16 14 4 5 4 3 2 4 3 3 2 8 14 13 18 14 11 10 2 9 8 7 16 7 5 7 8 4 9 3 12 5 19 -4 7 -8 12 1 -4 19 13 -5 6 8 6
14 7 8 10 10 7 5 26 6 7 15 19 11 6 5 3 6 -2 2 4 11 11 9 11 20 8 10 5 4 10 -9 18 13 11 -5 4 11 7 9 6 10 21 14 -5 11 31 9 9 16 14 7 12 11 10
16 9 3 6 15 6 9 9 19 5 7 14 13 20 16 11 10 7 -2 7 9 4 13 8 12 12 7 9 8 2 10 -4 -6 16 6 -0 -1 12 4 -3 -1 7 -0 13 20 4 1 18 12 11 8 6 9 11
15 7 11 4 16 7 7 9 10 17 7 11 13 7 8 9 14 11 6 7 7 3 6 7 14 8 10 8 5 8 5 11 4 2 -1 4 7 10 16 17 30 40 18 11 2 10 16 6 18 9 10 10 9 9
17 7 9 7 12 14 5 6 9 15 12 7 17 14 10 5 11 12 5 7 6 6 6 14 17 12 11 9 9 7 5 5 4 6 5 10 9 4 15 -2 22 20 14 23 13 11 8 12 10 8 10 9 8 8
15 6 10 7 11 17 8 4 7 11 18 11 7 12 11 11 11 9 1 14 4 3 6 16 21 32 26 15 10 8 8 7 5 5 5 4 3 3 2 13 14 6 11 12 14 12 9 8 7 7 7 7 7 6
9 9 10 8 9 17 10 7 6 7 13 13 12 11 11 12 9 11 9 -1 0 3 17 15 3 14 11 19 20 12 8 7 7 8 5 5 8 10 20 23 28 17 8 7 11 10 11 9 7 6 7 7 7 7
9 11 10 10 8 16 11 8 7 8 9 11 11 13 12 9 22 18 7 4 4 1 -1 -5 -5 12 12 17 21 16 10 10 18 8 9 21 18 -9 25 33 12 16 13 15 5 7 7 10 7 8 9 8 7 6
7 15 9 7 8 14 12 8 8 8 8 9 10 12 20 17 15 17 20 12 16 10 6 1 1 1 10 -2 11 29 25 27 5 23 37 42 14 13 2 -14 2 13 10 10 9 13 11 10 8 6 7 6 8 8
12 10 2 5 10 12 13 8 9 8 8 10 7 10 12 9 12 14 17 15 17 17 23 24 26 22 9 8 9 15 8 11 13 24 10 14 16 22 44 36 12 -0 9 8 8 5 4 5 7 9 10 12 10 9
6 13 6 9 7 10 17 8 9 10 9 10 4 13 12 14 20 12 21 18 12 13 12 -7 1 14 20 24 12 18 17 12 7 10 12 9 33 40 18 25 19 18 8 6 6 7 6 8 9 8 8 11 9 9
3 2 3 5 3 19 18 8 10 9 10 13 16 17 16 13 16 2 16 12 9 -4 -6 -2 4 16 26 18 12 9 13 11 14 16 3 -20 -2 6 32 9 10 16 12 8 4 5 6 7 9 9 9 9 9 9
2 8 8 5 3 24 15 9 9 11 7 12 5 14 2 7 12 18 -2 -1 5 1 13 14 1 9 24 20 7 5 13 7 10 8 -44 23 12 10 15 15 20 12 12 14 16 10 8 8 11 10 10 9 10 8
2 10 10 2 -0 24 13 8 10 11 13 -9 3 16 29 5 -11 9 16 24 11 7 8 4 8 14 13 -4 16 5 14 17 9 -9 -1 26 27 22 11 17 8 14 12 13 13 12 11 12 9 10 11 9 8 7
-4 17 8 9 6 23 11 9 10 17 2 -7 -5 -2 11 18 20 6 -4 3 10 14 10 8 5 17 21 5 15 4 4 -4 -1 -14 -16 -6 11 28 28 21 13 7 12 5 10 13 10 8 10 11 9 8 8 7
6 13 10 12 5 19 13 13 11 12 -3 1 6 18 -16 -15 2 11 16 8 7 7 6 11 15 -5 17 19 10 4 -9 -17 -9 -3 -4 -12 -10 15 16 8 5 11 13 8 14 13 7 4 9 9 8 8 8 5
9 19 13 4 15 15 10 8 5 13 9 -13 -2 3 4 8 19 -4 -9 -1 17 17 9 -5 -4 -3 -31 -8 -18 -13 -5 25 23 26 34 54 17 10 20 8 7 15 14 13 14 8 7 6 9 8 9 8 6 12
20 16 10 1 15 15 1 11 6 -22 13 14 5 7 -2 -11 -5 4 17 20 -8 3 15 22 28 22 -9 -1 10 9 -3 7 -6 -1 -9 6 20 16 16 10 12 15 15 15 12 10 7 8 7 8 8 7 12 11
16 12 2 18 20 19 7 5 32 2 -3 11 15 17 19 24 24 21 13 8 6 15 1 -6 -7 -13 2 -5 -29 6 39 36 37 20 1 16 6 17 16 15 19 18 18 13 13 8 9 8 4 7 9 12 11 9
15 4 12 19 15 10 -17 2 28 6 27 18 3 -6 -9 -1 1 5 9 18 20 11 8 9 16 15 8 -4 -6 -8 -21 -27 -10 1 30 9 33 21 -1 -0 7 12 13 15 11 12 14 7 7 10 14 9 4 8
8 7 10 11 15 10 0 -7 10 -3 -7 -9 16 17 8 6 8 13 16 15 6 5 14 16 17 17 19 23 25 31 19 15 27 10 -3 -3 9 13 18 13 4 3 8 9 10 10 -0 10 11 15 8 2 8 8
12 10 12 10 -2 -2 29 25 1 -15 -16 11 21 10 2 11 9 13 7 8 3 15 14 15 12 6 19 25 19 18 19 23 3 21 6 -22 7 -3 -2 2 -4 43 9 5 2 20 5 13 14 6 3 7 7 9
14 16 -6 12 -11 11 15 1 14 28 16 5 4 11 13 6 2 12 -1 -4 9 8 20 17 7 19 36 35 32 23 17 23 25 18 -1 15 16 29 2 -8 24 9 5 19 12 6 11 9 7 4 6 6 9 11
8 2 -18 19 9 17 7 12 11 4 -5 8 14 -4 -21 11 18 15 -27 1 7 16 19 16 35 35 36 15 23 26 33 37 10 24 1 17 -9 40 14 13 16 8 13 15 5 12 3 11 6 4 5 10 11 10
12 -4 -27 19 32 7 12 21 -5 3 18 22 12 18 27 22 25 -14 -11 11 13 16 10 39 35 38 23 6 22 23 20 33 23 14 15 6 10 33 3 11 18 10 13 11 9 6 9 8 4 4 11 12 11 12
-15 7 25 3 8 18 0 -2 13 19 19 8 10 39 24 4 -3 -10 32 57 30 18 -5 5 10 2 26 16 5 12 31 27 11 14 8 3 32 20 -8 15 8 11 9 16 9 7 9 3 5 10 12 11 10 10
13 -8 -15 12 20 13 7 19 22 20 23 -3 6 3 2 -27 -30 1 10 10 -2 -0 11 10 6 13 2 4 3 34 5 29 10 20 24 29 23 8 -4 11 10 5 8 18 19 9 3 4 9 12 10 10 10 11
-4 12 2 -2 -0 -1 21 11 2 4 -13 11 6 1 -20 1 9 16 10 10 14 15 9 15 4 20 27 18 12 25 -1 23 40 14 16 24 17 7 -0 6 10 13 15 20 8 1 4 10 12 11 11 10 10 9
2 6 2 5 17 13 1 2 4 11 20 16 14 8 8 8 11 19 25 19 8 8 13 21 19 17 15 8 27 22 16 2 41 21 21 23 21 9 7 8 15 18 19 9 0 3 9 12 11 11 11 10 10 12
33 10 13 17 17 8 3 6 16 20 1 -8 -7 -9 -3 5 7 6 -5 -1 0 13 15 24 22 16 18 3 11 6 9 15 40 33 35 22 18 5 8 22 18 16 11 5 5 7 11 11 11 11 10 11 11 14
23 -2 10 13 8 6 10 23 29 26 18 14 9 12 14 13 10 14 15 15 16 16 16 28 23 15 10 11 5 20 13 18 49 22 29 27 33 5 8 18 19 12 6 5 5 11 11 11 11 9 12 11 16 13
5 -0 26 29 19 18 18 23 8 -5 -3 3 6 7 11 19 15 13 11 20 20 3 15 22 17 19 14 6 10 13 3 29 27 24 34 25 16 6 16 22 9 7 4 6 11 11 11 9 9 12 14 18 12 16
Height
3055 3054 3052 3051 3048 3046 3042 3040 3037 3038 3037 3036 3033 3032 3031 3027 3024 3024 3024 3023 3024 3025 3025 3024 3025 3026 3028 3031 3033 3035 3037 3036 3038 3039 3040 3040 3039 3037 3037 3036 3036 3037 3037 3036 3036 3036 3034 3030 3031 3034 3035 3035 3036 3037
3051 3048 3048 3047 3045 3043 3040 3038 3036 3035 3035 3034 3033 3032 3032 3031 3026 3024 3025 3024 3024 3025 3027 3026 3026 3027 3029 3031 3033 3034 3035 3035 3036 3038 3039 3038 3038 3036 3035 3034 3033 3034 3034 3034 3034 3031 3029 3029 3029 3031 3032 3032 3034 3035
3045 3043 3043 3042 3040 3039 3038 3035 3034 3032 3031 3032 3035 3034 3028 3029 3029 3027 3026 3026 3026 3025 3027 3026 3027 3028 3029 3031 3032 3034 3035 3035 3035 3036 3037 3037 3036 3035 3034 3032 3030 3029 3029 3029 3029 3027 3027 3027 3028 3029 3030 3030 3031 3032
3038 3036 3036 3037 3037 3035 3035 3032 3032 3030 3030 3030 3028 3030 3030 3028 3030 3028 3027 3027 3026 3026 3025 3027 3026 3027 3029 3029 3030 3031 3032 3033 3034 3034 3034 3033 3033 3031 3029 3028 3026 3026 3024 3023 3022 3023 3024 3024 3025 3026 3027 3028 3029 3030
3031 3030 3030 3031 3032 3031 3030 3029 3028 3027 3026 3027 3027 3027 3031 3033 3030 3028 3028 3027 3026 3029 3026 3025 3025 3025 3026 3028 3028 3029 3029 3030 3031 3031 3031 3030 3028 3028 3024 3021 3014 3017 3016 3017 3017 3018 3020 3021 3022 3023 3024 3024 3025 3026
3023 3023 3023 3023 3025 3026 3026 3025 3025 3025 3023 3023 3024 3024 3026 3026 3028 3029 3028 3028 3027 3025 3026 3025 3024 3023 3023 3024 3025 3026 3027 3027 3027 3026 3026 3025 3025 3025 3019 3010 3010 3010 3010 3012 3012 3013 3015 3017 3018 3019 3020 3021 3021 3022
3014 3015 3016 3017 3018 3019 3020 3020 3021 3021 3020 3020 3020 3021 3021 3024 3027 3028 3028 3028 3026 3026 3026 3025 3022 3021 3021 3021 3021 3022 3023 3023 3023 3021 3019 3019 3020 3020 3011 3002 3006 3007 3007 3008 3008 3011 3012 3013 3014 3015 3016 3016 3016 3017
3004 3006 3007 3009 3010 3012 3014 3014 3014 3014 3016 3016 3016 3017 3017 3016 3017 3020 3022 3023 3022 3023 3024 3024 3023 3022 3021 3019 3019 3019 3019 3019 3017 3016 3013 3013 3012 3011 2997 2997 2997 2998 3001 3003 3005 3006 3008 3010 3010 3010 3011 3012 3012 3012
2994 2996 2999 3000 3002 3003 3005 3007 3009 3009 3009 3010 3011 3011 3012 3014 3014 3016 3018 3019 3020 3024 3020 3020 3020 3020 3020 3019 3017 3017 3016 3014 3013 3007 3008 3007 2998 2990 2991 2992 2993 2995 2996 2999 2999 3001 3002 3004 3005 3006 3007 3007 3008 3007
2983 2988 2990 2991 2993 2997 2998 2999 3002 3003 3005 3006 3007 3008 3007 3009 3009 3012 3013 3013 3012 3009 3010 3011 3013 3016 3018 3017 3016 3017 3012 3011 3005 3003 3001 2990 2975 2982 2989 2990 2991 2991 2992 2993 2994 2996 2997 2999 3000 3000 3002 3002 3002 3002
2972 2978 2981 2982 2985 2988 2992 2992 2995 2996 2998 3000 3001 3003 3005 3005 3007 3007 3008 3007 3006 3005 3002 3005 3007 3007 3009 3011 3012 3013 3009 3007 3002 2998 2995 2982 2968 2980 2978 2978 2982 2985 2987 2989 2990 2991 2991 2993 2994 2995 2996 2997 2997 2997
2961 2966 2971 2973 2977 2979 2983 2986 2988 2990 2992 2994 2996 2998 3001 3003 3002 3003 2999 3000 2999 3000 2999 3001 3002 3003 3003 3005 3007 3006 3005 3003 2995 2993 2989 2976 2978 2974 2974 2974 2976 2978 2980 2982 2985 2986 2987 2988 2989 2989 2990 2990 2990 2990
2950 2956 2960 2963 2969 2972 2973 2977 2981 2982 2984 2988 2991 2995 2995 2996 2992 2990 2987 2990 2992 2995 2995 2996 2999 2999 2998 3001 3002 3003 2998 2994 2991 2985 2977 2974 2977 2975 2973 2972 2972 2974 2976 2976 2978 2980 2981 2983 2983 2983 2984 2984 2984 2984
2938 2944 2949 2953 2957 2962 2966 2969 2973 2976 2978 2981 2985 2987 2986 2983 2979 2979 2983 2987 2989 2990 2992 2993 2992 2995 2995 2997 2997 2995 2993 2989 2982 2978 2972 2972 2971 2971 2970 2970 2969 2969 2971 2972 2973 2975 2975 2976 2977 2977 2978 2978 2978 2977
2927 2932 2937 2942 2947 2952 2956 2961 2964 2969 2971 2973 2975 2971 2968 2969 2974 2976 2978 2981 2984 2985 2986 2987 2988 2990 2991 2993 2990 2990 2986 2979 2973 2970 2969 2967 2965 2964 2965 2965 2966 2966 2967 2967 2968 2969 2970 2971 2971 2972 2972 2972 2972 2971
2915 2919 2921 2931 2936 2942 2946 2952 2956 2961 2962 2962 2957 2957 2962 2966 2969 2972 2975 2977 2979 2981 2981 2983 2981 2982 2982 2982 2980 2976 2975 2970 2970 2968 2966 2964 2962 2960 2959 2959 2961 2962 2962 2962 2963 2964 2965 2966 2966 2966 2966 2966 2965 2964
2897 2899 2913 2920 2926 2932 2939 2943 2947 2953 2956 2947 2941 2949 2957 2962 2966 2968 2970 2971 2972 2974 2975 2976 2972 2973 2970 2967 2965 2964 2961 2967 2967 2965 2963 2962 2960 2958 2957 2956 2957 2957 2958 2957 2958 2958 2960 2960 2960 2960 2960 2959 2958 2957
2883 2895 2902 2908 2915 2921 2926 2932 2940 2938 2933 2931 2934 2941 2947 2955 2960 2964 2964 2965 2966 2966 2966 2967 2966 2960 2958 2958 2958 2963 2962 2960 2960 2959 2956 2954 2954 2953 2952 2951 2951 2951 2952 2952 2952 2953 2953 2954 2954 2954 2953 2952 2951 2949
2876 2884 2891 2897 2904 2911 2917 2922 2925 2922 2923 2925 2929 2934 2939 2944 2950 2953 2955 2956 2957 2957 2955 2952 2954 2945 2951 2952 2956 2959 2956 2954 2954 2952 2950 2950 2949 2947 2946 2946 2945 2944 2945 2945 2947 2947 2947 2947 2948 2947 2946 2945 2943 2942
2868 2878 2884 2889 2898 2905 2909 2913 2913 2916 2913 2916 2920 2926 2931 2934 2939 2942 2944 2946 2945 2942 2940 2935 2939 2942 2944 2948 2949 2949 2947 2946 2946 2945 2946 2945 2944 2942 2941 2940 2939 2939 2940 2941 2942 2942 2941 2941 2941 2940 2939 2938 2936 2934
2861 2867 2875 2880 2886 2896 2899 2899 2901 2903 2903 2906 2912 2918 2920 2923 2927 2930 2931 2933 2927 2921 2921 2926 2930 2932 2936 2936 2937 2938 2940 2940 2939 2937 2937 2938 2936 2935 2936 2935 2935 2935 2934 2936 2935 2935 2935 2933 2934 2933 2931 2930 2928 2926
2851 2858 2865 2873 2882 2886 2888 2887 2892 2895 2898 2900 2905 2908 2909 2913 2915 2916 2920 2913 2906 2909 2915 2917 2918 2919 2919 2920 2921 2922 2924 2925 2927 2929 2928 2928 2930 2928 2928 2929 2929 2928 2928 2928 2928 2927 2926 2925 2925 2924 2923 2921 2920 2917
2845 2853 2861 2868 2876 2876 2876 2879 2883 2886 2892 2893 2896 2899 2898 2898 2900 2904 2898 2893 2894 2904 2906 2905 2906 2906 2903 2903 2903 2904 2906 2909 2911 2915 2918 2917 2918 2919 2918 2919 2920 2919 2918 2918 2918 2918 2918 2918 2917 2915 2914 2914 2912 2909
2842 2849 2855 2863 2865 2865 2863 2866 2870 2877 2881 2883 2886 2887 2887 2889 2890 2886 2879 2881 2887 2891 2893 2893 2893 2890 2888 2885 2884 2887 2891 2894 2895 2898 2902 2904 2905 2906 2906 2907 2909 2909 2909 2908 2909 2910 2910 2909 2908 2907 2907 2906 2904 2900
2838 2845 2850 2849 2848 2851 2853 2855 2860 2867 2872 2873 2874 2876 2879 2880 2877 2873 2870 2872 2876 2880 2880 2881 2879 2877 2875 2875 2874 2873 2875 2876 2879 2884 2888 2890 2892 2892 2893 2895 2897 2899 2900 2900 2902 2902 2902 2901 2900 2900 2899 2898 2895 2891
2829 2832 2834 2830 2833 2840 2841 2847 2853 2858 2860 2863 2865 2868 2870 2870 2868 2863 2861 2862 2866 2868 2870 2870 2868 2867 2866 2866 2865 2864 2865 2867 2868 2869 2874 2877 2880 2881 2884 2887 2888 2891 2892 2893 2894 2894 2893 2892 2892 2892 2891 2889 2887 2883
2817 2814 2816 2819 2824 2829 2836 2840 2844 2847 2850 2853 2855 2860 2862 2862 2858 2851 2854 2858 2858 2860 2863 2862 2861 2859 2857 2856 2856 2855 2854 2855 2854 2857 2862 2865 2869 2871 2876 2878 2880 2883 2883 2884 2884 2885 2885 2885 2886 2885 2884 2882 2878 2874
2800 2804 2808 2812 2819 2824 2827 2828 2832 2836 2840 2842 2846 2846 2848 2847 2843 2847 2850 2852 2853 2854 2854 2853 2852 2850 2848 2847 2847 2846 2845 2845 2847 2850 2851 2854 2858 2862 2866 2869 2870 2873 2874 2875 2876 2877 2878 2879 2879 2877 2876 2873 2870 2867
2792 2797 2805 2809 2813 2816 2815 2819 2822 2826 2828 2830 2833 2834 2832 2835 2839 2840 2841 2843 2844 2843 2843 2843 2842 2841 2839 2838 2837 2836 2836 2835 2837 2840 2842 2844 2847 2852 2856 2860 2863 2865 2866 2867 2868 2870 2872 2873 2872 2870 2868 2865 2863 2860
2787 2793 2795 2797 2801 2802 2806 2810 2814 2819 2821 2824 2826 2826 2825 2825 2829 2831 2831 2831 2832 2831 2832 2832 2831 2831 2830 2829 2828 2828 2828 2828 2828 2830 2832 2836 2840 2846 2850 2854 2856 2858 2859 2860 2861 2863 2865 2866 2865 2863 2861 2858 2856 2854
2779 2782 2785 2790 2792 2795 2801 2805 2807 2810 2813 2815 2816 2816 2814 2816 2817 2819 2820 2821 2822 2822 2822 2821 2821 2821 2821 2821 2821 2819 2820 2821 2821 2822 2825 2829 2833 2839 2845 2847 2848 2850 2851 2853 2855 2858 2859 2858 2858 2857 2855 2852 2850 2847
2773 2776 2780 2781 2785 2789 2793 2796 2799 2801 2802 2803 2804 2804 2804 2805 2802 2806 2808 2810 2811 2812 2813 2811 2811 2813 2813 2814 2814 2813 2813 2813 2812 2815 2818 2822 2828 2833 2836 2839 2842 2843 2846 2848 2850 2851 2852 2851 2851 2849 2848 2847 2844 2842
2764 2768 2771 2774 2778 2781 2785 2790 2790 2790 2791 2791 2792 2793 2794 2794 2790 2794 2797 2799 2801 2802 2803 2803 2803 2804 2804 2805 2806 2806 2806 2806 2807 2809 2813 2818 2823 2828 2832 2834 2836 2838 2840 2843 2845 2846 2846 2845 2844 2844 2842 2840 2839 2837